Location: Peterborough
(44.3091°N, 78.3197°W)
Time: 17:53:20
(UTC-04:00)

Transit 2A - Pass Details

Date: 27 March 2023
Orbit: 591 x 964 km, 66.7° (Epoch: 04 June)

Event Time Altitude Azimuth Distance (km) Brightness Sun altitude
Rises 08:02:58 0° 271° (W) 3,344 8.6 9.7°
Reaches altitude 10° 08:06:21 10° 293° (WNW) 2,490 8.1 10.3°
Maximum altitude 08:09:52 16° 330° (NNW) 2,150 8.0 11.0°
Drops below altitude 10° 08:13:33 10° 7° (N) 2,625 8.8 11.6°
Sets 08:17:17 0° 28° (NNE) 3,619 9.8 12.3°
